When you browse on this site, cookies collect data to enhance your experience and personalize the content and advertising you see.
Visit our Privacy Policy to learn more. By continuing to use the site, you agree to this use of cookies and data.
  • în România
  • Lista ţărilor
  • Pe 7 zile
  • Temperatura apei
  • Meteo pe hartă
  • Widget-uri
  • user-avatar
    Intrare

    Meteo pe oră la Ciudad Bolívar

    Astăzi, 11 Decembrie, Miercuri

    Timp Temperatura Precipitaţii Vânt Presiune Umiditate
    00:00 +27°C° 0 mm 3 m/s 752 mmHg 83%
    01:00 +26°C° 0 mm 3 m/s 752 mmHg 84%
    02:00 +26°C° 0 mm 3 m/s 751 mmHg 85%
    03:00 +26°C° 0 mm 2 m/s 751 mmHg 87%
    04:00 +26°C° 0 mm 2 m/s 751 mmHg 88%
    05:00 +25°C° 0 mm 2 m/s 751 mmHg 89%
    06:00 +26°C° 0 mm 2 m/s 752 mmHg 87%
    07:00 +26°C° 0 mm 2 m/s 752 mmHg 85%
    08:00 +27°C° 0 mm 3 m/s 753 mmHg 83%
    09:00 +28°C° 0 mm 3 m/s 753 mmHg 74%
    10:00 +30°C° 0 mm 3 m/s 753 mmHg 66%
    11:00 +33°C° 0 mm 3 m/s 752 mmHg 58%
    12:00 +33°C° 0 mm 3 m/s 751 mmHg 56%
    13:00 +34°C° 0 mm 3 m/s 751 mmHg 54%
    14:00 +34°C° 0 mm 2 m/s 750 mmHg 52%
    15:00 +34°C° 0.3 mm 3 m/s 749 mmHg 55%
    16:00 +33°C° 0.3 mm 4 m/s 749 mmHg 59%
    17:00 +32°C° 0.3 mm 5 m/s 749 mmHg 63%
    18:00 +30°C° 0.1 mm 5 m/s 749 mmHg 68%
    19:00 +29°C° 0.1 mm 5 m/s 750 mmHg 73%
    20:00 +28°C° 0.1 mm 5 m/s 750 mmHg 79%
    21:00 +27°C° 0 mm 5 m/s 751 mmHg 80%
    22:00 +27°C° 0 mm 5 m/s 751 mmHg 81%
    23:00 +26°C° 0 mm 4 m/s 752 mmHg 83%

    Mâine, 12 Decembrie, Joi

    Timp Temperatura Precipitaţii Vânt Presiune Umiditate
    00:00 +26°C° 0 mm 4 m/s 751 mmHg 84%
    01:00 +26°C° 0 mm 4 m/s 751 mmHg 85%
    02:00 +25°C° 0 mm 3 m/s 750 mmHg 86%
    03:00 +25°C° 0 mm 3 m/s 750 mmHg 87%
    04:00 +25°C° 0 mm 3 m/s 750 mmHg 88%
    05:00 +25°C° 0 mm 2 m/s 750 mmHg 89%
    06:00 +25°C° 0 mm 2 m/s 751 mmHg 87%
    07:00 +26°C° 0 mm 3 m/s 751 mmHg 84%
    08:00 +27°C° 0 mm 3 m/s 751 mmHg 81%
    09:00 +28°C° 0 mm 3 m/s 751 mmHg 74%
    10:00 +30°C° 0 mm 3 m/s 751 mmHg 67%
    11:00 +32°C° 0 mm 4 m/s 751 mmHg 60%
    12:00 +31°C° 0 mm 3 m/s 750 mmHg 59%
    13:00 +32°C° 0 mm 2 m/s 749 mmHg 57%
    14:00 +32°C° 0 mm 2 m/s 748 mmHg 56%
    15:00 +32°C° 0.1 mm 2 m/s 748 mmHg 57%
    16:00 +33°C° 0.1 mm 3 m/s 748 mmHg 59%
    17:00 +32°C° 0.1 mm 4 m/s 748 mmHg 60%
    18:00 +30°C° 0.2 mm 4 m/s 748 mmHg 65%
    19:00 +29°C° 0.2 mm 4 m/s 749 mmHg 71%
    20:00 +28°C° 0.2 mm 4 m/s 750 mmHg 76%
    21:00 +27°C° 0 mm 4 m/s 750 mmHg 79%
    22:00 +27°C° 0 mm 4 m/s 750 mmHg 81%
    23:00 +26°C° 0 mm 4 m/s 751 mmHg 83%

    Poimâine, 13 Decembrie, Vineri

    Timp Temperatura Precipitaţii Vânt Presiune Umiditate
    00:00 +26°C° 0 mm 3 m/s 750 mmHg 84%
    01:00 +26°C° 0 mm 3 m/s 750 mmHg 86%
    02:00 +25°C° 0 mm 3 m/s 750 mmHg 87%
    03:00 +25°C° 0 mm 3 m/s 750 mmHg 88%
    04:00 +25°C° 0 mm 3 m/s 750 mmHg 89%
    05:00 +25°C° 0 mm 3 m/s 750 mmHg 90%
    06:00 +25°C° 0 mm 3 m/s 750 mmHg 88%
    07:00 +26°C° 0 mm 3 m/s 751 mmHg 86%
    08:00 +26°C° 0 mm 3 m/s 751 mmHg 84%
    09:00 +28°C° 0 mm 3 m/s 751 mmHg 75%
    10:00 +30°C° 0 mm 3 m/s 751 mmHg 66%
    11:00 +32°C° 0 mm 4 m/s 751 mmHg 58%
    12:00 +33°C° 0 mm 4 m/s 750 mmHg 55%
    13:00 +34°C° 0 mm 3 m/s 749 mmHg 52%
    14:00 +35°C° 0 mm 3 m/s 749 mmHg 49%
    15:00 +34°C° 0 mm 3 m/s 748 mmHg 51%
    16:00 +34°C° 0 mm 3 m/s 748 mmHg 52%
    17:00 +32°C° 0 mm 2 m/s 748 mmHg 54%
    18:00 +31°C° 0 mm 3 m/s 749 mmHg 59%
    19:00 +30°C° 0 mm 4 m/s 749 mmHg 64%
    20:00 +29°C° 0 mm 5 m/s 750 mmHg 69%
    21:00 +28°C° 0 mm 4 m/s 750 mmHg 72%
    22:00 +28°C° 0 mm 4 m/s 751 mmHg 75%
    23:00 +27°C° 0 mm 4 m/s 751 mmHg 78%

    14 Decembrie, Sâmbătă

    Timp Temperatura Precipitaţii Vânt Presiune Umiditate
    00:00 +27°C° 0 mm 3 m/s 751 mmHg 80%
    01:00 +26°C° 0 mm 3 m/s 750 mmHg 82%
    02:00 +26°C° 0 mm 3 m/s 750 mmHg 85%
    03:00 +26°C° 0 mm 3 m/s 750 mmHg 86%
    04:00 +25°C° 0 mm 3 m/s 750 mmHg 88%
    05:00 +25°C° 0 mm 3 m/s 750 mmHg 89%
    06:00 +26°C° 0 mm 3 m/s 751 mmHg 86%
    07:00 +26°C° 0 mm 3 m/s 751 mmHg 83%
    08:00 +27°C° 0 mm 3 m/s 752 mmHg 81%
    09:00 +29°C° 0 mm 3 m/s 752 mmHg 72%
    10:00 +30°C° 0 mm 3 m/s 752 mmHg 64%
    11:00 +33°C° 0 mm 4 m/s 752 mmHg 56%
    12:00 +34°C° 0 mm 3 m/s 751 mmHg 54%
    13:00 +34°C° 0 mm 3 m/s 750 mmHg 51%
    14:00 +35°C° 0 mm 2 m/s 749 mmHg 49%
    15:00 +34°C° 0 mm 3 m/s 749 mmHg 51%
    16:00 +34°C° 0 mm 3 m/s 748 mmHg 52%
    17:00 +34°C° 0 mm 3 m/s 748 mmHg 54%
    18:00 +31°C° 0.2 mm 3 m/s 749 mmHg 60%
    19:00 +30°C° 0.2 mm 4 m/s 750 mmHg 67%
    20:00 +29°C° 0.2 mm 4 m/s 751 mmHg 74%
    21:00 +28°C° 0 mm 4 m/s 751 mmHg 77%
    22:00 +28°C° 0 mm 4 m/s 751 mmHg 80%
    23:00 +27°C° 0 mm 4 m/s 752 mmHg 83%

    15 Decembrie, Duminică

    Timp Temperatura Precipitaţii Vânt Presiune Umiditate
    00:00 +27°C° 0 mm 4 m/s 751 mmHg 84%
    01:00 +27°C° 0 mm 3 m/s 751 mmHg 86%
    02:00 +26°C° 0 mm 3 m/s 751 mmHg 87%
    03:00 +26°C° 0 mm 3 m/s 751 mmHg 88%
    04:00 +26°C° 0 mm 3 m/s 751 mmHg 90%
    05:00 +26°C° 0 mm 2 m/s 751 mmHg 91%
    06:00 +26°C° 0 mm 3 m/s 751 mmHg 89%
    07:00 +27°C° 0 mm 3 m/s 752 mmHg 86%
    08:00 +27°C° 0 mm 3 m/s 752 mmHg 84%
    09:00 +29°C° 0 mm 3 m/s 752 mmHg 76%
    10:00 +30°C° 0 mm 3 m/s 752 mmHg 68%
    11:00 +33°C° 0 mm 3 m/s 752 mmHg 60%
    12:00 +33°C° 0.1 mm 3 m/s 751 mmHg 58%
    13:00 +34°C° 0.1 mm 3 m/s 750 mmHg 57%
    14:00 +34°C° 0.1 mm 2 m/s 750 mmHg 55%
    15:00 +34°C° 1 mm 3 m/s 749 mmHg 58%
    16:00 +33°C° 1 mm 3 m/s 749 mmHg 61%
    17:00 +31°C° 1 mm 3 m/s 749 mmHg 65%
    18:00 +30°C° 1.3 mm 3 m/s 750 mmHg 70%
    19:00 +29°C° 1.3 mm 4 m/s 750 mmHg 76%
    20:00 +28°C° 1.3 mm 4 m/s 751 mmHg 81%
    21:00 +28°C° 0 mm 4 m/s 751 mmHg 83%
    22:00 +27°C° 0 mm 4 m/s 751 mmHg 84%
    23:00 +27°C° 0 mm 3 m/s 752 mmHg 86%

    16 Decembrie, Luni

    Timp Temperatura Precipitaţii Vânt Presiune Umiditate
    00:00 +27°C° 0.1 mm 3 m/s 751 mmHg 86%
    01:00 +26°C° 0.1 mm 3 m/s 751 mmHg 87%
    02:00 +26°C° 0.1 mm 3 m/s 751 mmHg 87%
    03:00 +26°C° 0 mm 3 m/s 751 mmHg 89%
    04:00 +26°C° 0 mm 2 m/s 751 mmHg 90%
    05:00 +25°C° 0 mm 2 m/s 751 mmHg 92%
    06:00 +26°C° 0.3 mm 2 m/s 751 mmHg 89%
    07:00 +27°C° 0.3 mm 2 m/s 752 mmHg 86%
    08:00 +27°C° 0.3 mm 2 m/s 752 mmHg 84%
    09:00 +28°C° 1.1 mm 3 m/s 752 mmHg 77%
    10:00 +30°C° 1.1 mm 4 m/s 752 mmHg 70%
    11:00 +32°C° 1.1 mm 5 m/s 752 mmHg 64%
    12:00 +33°C° 1.1 mm 5 m/s 752 mmHg 62%
    13:00 +33°C° 1.1 mm 5 m/s 751 mmHg 60%
    14:00 +34°C° 1.1 mm 5 m/s 750 mmHg 58%
    15:00 +33°C° 0.6 mm 5 m/s 750 mmHg 60%
    16:00 +33°C° 0.6 mm 4 m/s 750 mmHg 63%
    17:00 +32°C° 0.6 mm 4 m/s 749 mmHg 65%
    18:00 +30°C° 0.6 mm 4 m/s 750 mmHg 71%
    19:00 +29°C° 0.6 mm 5 m/s 750 mmHg 76%
    20:00 +27°C° 0.6 mm 5 m/s 751 mmHg 82%
    21:00 +27°C° 0.2 mm 5 m/s 751 mmHg 84%
    22:00 +27°C° 0.2 mm 4 m/s 751 mmHg 86%
    23:00 +26°C° 0.2 mm 4 m/s 752 mmHg 88%
    Arată mai mult